• In Hungary
  • List of Countries
  • For 7 days
  • Water Temperature
  • Satellite Maps
  • Weather Map
  • News
  • Weather Widgets
  • user-avatar
    Login

    Hourly Weather Maszkowice

    Today, 21 July, Saturday

    Time Temperature Precipitation Wind Pressure Humidity
    00:00 +18°C° 0 mm 2 mps 747 mmHg 82%
    01:00 +17°C° 0 mm 2 mps 747 mmHg 87%
    02:00 +17°C° 0 mm 2 mps 747 mmHg 89%
    03:00 +17°C° 0 mm 2 mps 747 mmHg 90%
    04:00 +18°C° 0 mm 1 mps 747 mmHg 92%
    05:00 +19°C° 0 mm 1 mps 748 mmHg 88%
    06:00 +20°C° 0 mm 1 mps 748 mmHg 83%
    07:00 +21°C° 0 mm 1 mps 748 mmHg 77%
    08:00 +23°C° 0.1 mm 2 mps 748 mmHg 70%
    09:00 +24°C° 0.1 mm 2 mps 748 mmHg 63%
    10:00 +25°C° 0.1 mm 2 mps 748 mmHg 56%
    11:00 +26°C° 0 mm 2 mps 747 mmHg 53%
    12:00 +26°C° 0 mm 2 mps 747 mmHg 50%
    13:00 +27°C° 0 mm 2 mps 747 mmHg 46%
    14:00 +27°C° 0 mm 2 mps 747 mmHg 46%
    15:00 +27°C° 0 mm 2 mps 747 mmHg 45%
    16:00 +28°C° 0 mm 2 mps 746 mmHg 45%
    17:00 +26°C° 0 mm 1 mps 746 mmHg 50%
    18:00 +25°C° 0 mm 1 mps 746 mmHg 55%
    19:00 +24°C° 0 mm 1 mps 747 mmHg 60%
    20:00 +23°C° 0 mm 1 mps 747 mmHg 62%
    21:00 +22°C° 0 mm 1 mps 747 mmHg 64%
    22:00 +21°C° 0 mm 1 mps 747 mmHg 65%
    23:00 +20°C° 0 mm 1 mps 747 mmHg 68%

    Tomorrow, 22 July, Sunday

    Time Temperature Precipitation Wind Pressure Humidity
    00:00 +19°C° 0 mm 1 mps 747 mmHg 70%
    01:00 +19°C° 0 mm 1 mps 747 mmHg 72%
    02:00 +19°C° 0 mm 1 mps 747 mmHg 74%
    03:00 +18°C° 0 mm 1 mps 747 mmHg 76%
    04:00 +18°C° 0 mm 1 mps 746 mmHg 77%
    05:00 +19°C° 0 mm 1 mps 747 mmHg 74%
    06:00 +21°C° 0 mm 1 mps 747 mmHg 70%
    07:00 +22°C° 0 mm 1 mps 747 mmHg 66%
    08:00 +24°C° 0 mm 1 mps 747 mmHg 61%
    09:00 +25°C° 0 mm 1 mps 747 mmHg 57%
    10:00 +27°C° 0 mm 1 mps 747 mmHg 52%
    11:00 +27°C° 0 mm 1 mps 747 mmHg 50%
    12:00 +28°C° 0 mm 1 mps 746 mmHg 47%
    13:00 +28°C° 0 mm 2 mps 746 mmHg 45%
    14:00 +28°C° 0 mm 2 mps 746 mmHg 45%
    15:00 +28°C° 0 mm 2 mps 746 mmHg 46%
    16:00 +28°C° 0 mm 2 mps 746 mmHg 46%
    17:00 +27°C° 0 mm 2 mps 746 mmHg 52%
    18:00 +26°C° 0 mm 2 mps 746 mmHg 58%
    19:00 +24°C° 0 mm 2 mps 746 mmHg 64%
    20:00 +23°C° 0 mm 2 mps 746 mmHg 67%
    21:00 +21°C° 0 mm 2 mps 747 mmHg 70%
    22:00 +20°C° 0 mm 2 mps 747 mmHg 73%
    23:00 +20°C° 0 mm 2 mps 747 mmHg 77%

    Day after tomorrow, 23 July, Monday

    Time Temperature Precipitation Wind Pressure Humidity
    00:00 +19°C° 0 mm 2 mps 747 mmHg 81%
    01:00 +19°C° 0 mm 2 mps 747 mmHg 86%
    02:00 +18°C° 0 mm 2 mps 747 mmHg 88%
    03:00 +18°C° 0 mm 2 mps 747 mmHg 90%
    04:00 +17°C° 0 mm 2 mps 747 mmHg 92%
    05:00 +19°C° 0 mm 2 mps 747 mmHg 88%
    06:00 +20°C° 0 mm 2 mps 747 mmHg 83%
    07:00 +21°C° 0 mm 3 mps 748 mmHg 78%
    08:00 +22°C° 0 mm 3 mps 748 mmHg 71%
    09:00 +25°C° 0 mm 3 mps 748 mmHg 64%
    10:00 +26°C° 0 mm 3 mps 748 mmHg 57%
    11:00 +27°C° 0 mm 4 mps 748 mmHg 54%
    12:00 +27°C° 0 mm 4 mps 747 mmHg 50%
    13:00 +28°C° 0 mm 4 mps 747 mmHg 47%
    14:00 +28°C° 0 mm 4 mps 747 mmHg 47%
    15:00 +28°C° 0 mm 4 mps 747 mmHg 48%
    16:00 +28°C° 0 mm 4 mps 747 mmHg 49%
    17:00 +27°C° 0 mm 4 mps 747 mmHg 55%
    18:00 +26°C° 0 mm 3 mps 747 mmHg 62%
    19:00 +25°C° 0 mm 2 mps 748 mmHg 68%
    20:00 +23°C° 0 mm 2 mps 748 mmHg 72%
    21:00 +21°C° 0 mm 2 mps 748 mmHg 76%
    22:00 +20°C° 0 mm 2 mps 748 mmHg 79%
    23:00 +20°C° 0 mm 2 mps 748 mmHg 82%

    24 July, Tuesday

    Time Temperature Precipitation Wind Pressure Humidity
    00:00 +19°C° 0 mm 2 mps 748 mmHg 84%
    01:00 +19°C° 0 mm 2 mps 748 mmHg 87%
    02:00 +18°C° 0 mm 2 mps 748 mmHg 89%
    03:00 +18°C° 0 mm 2 mps 748 mmHg 91%
    04:00 +17°C° 0 mm 2 mps 748 mmHg 94%
    05:00 +18°C° 0 mm 2 mps 748 mmHg 89%
    06:00 +20°C° 0 mm 3 mps 749 mmHg 84%
    07:00 +21°C° 0 mm 3 mps 749 mmHg 80%
    08:00 +22°C° 0 mm 3 mps 749 mmHg 74%
    09:00 +24°C° 0 mm 3 mps 748 mmHg 67%
    10:00 +26°C° 0 mm 3 mps 748 mmHg 61%
    11:00 +26°C° 0.1 mm 3 mps 748 mmHg 58%
    12:00 +27°C° 0.1 mm 3 mps 748 mmHg 55%
    13:00 +28°C° 0.1 mm 3 mps 748 mmHg 52%
    14:00 +28°C° 0 mm 3 mps 747 mmHg 53%
    15:00 +28°C° 0 mm 3 mps 747 mmHg 53%
    16:00 +28°C° 0 mm 4 mps 747 mmHg 53%
    17:00 +27°C° 0 mm 3 mps 747 mmHg 59%
    18:00 +25°C° 0 mm 3 mps 747 mmHg 65%
    19:00 +24°C° 0 mm 2 mps 747 mmHg 70%
    20:00 +23°C° 0.1 mm 2 mps 747 mmHg 74%
    21:00 +21°C° 0.1 mm 2 mps 747 mmHg 78%
    22:00 +20°C° 0.1 mm 2 mps 748 mmHg 82%
    23:00 +19°C° 0 mm 2 mps 748 mmHg 85%

    25 July, Wednesday

    Time Temperature Precipitation Wind Pressure Humidity
    00:00 +19°C° 0 mm 2 mps 748 mmHg 88%
    01:00 +18°C° 0 mm 2 mps 748 mmHg 91%
    02:00 +18°C° 0 mm 2 mps 748 mmHg 92%
    03:00 +17°C° 0 mm 2 mps 748 mmHg 93%
    04:00 +17°C° 0 mm 2 mps 748 mmHg 94%
    05:00 +18°C° 0 mm 2 mps 748 mmHg 88%
    06:00 +19°C° 0 mm 3 mps 748 mmHg 83%
    07:00 +21°C° 0 mm 3 mps 748 mmHg 78%
    08:00 +22°C° 0 mm 3 mps 748 mmHg 73%
    09:00 +25°C° 0 mm 3 mps 748 mmHg 68%
    10:00 +26°C° 0 mm 4 mps 748 mmHg 62%
    11:00 +27°C° 0.1 mm 4 mps 748 mmHg 61%
    12:00 +28°C° 0.1 mm 4 mps 748 mmHg 59%
    13:00 +28°C° 0.1 mm 5 mps 747 mmHg 57%
    14:00 +28°C° 0.1 mm 5 mps 747 mmHg 57%
    15:00 +28°C° 0.1 mm 5 mps 747 mmHg 57%
    16:00 +29°C° 0.1 mm 5 mps 747 mmHg 57%
    17:00 +27°C° 0.1 mm 5 mps 747 mmHg 63%
    18:00 +26°C° 0.1 mm 4 mps 747 mmHg 69%
    19:00 +25°C° 0.1 mm 4 mps 747 mmHg 75%
    20:00 +24°C° 0 mm 3 mps 748 mmHg 78%
    21:00 +22°C° 0 mm 3 mps 748 mmHg 82%
    22:00 +20°C° 0 mm 3 mps 748 mmHg 85%
    23:00 +20°C° 0 mm 3 mps 748 mmHg 88%

    26 July, Thursday

    Time Temperature Precipitation Wind Pressure Humidity
    00:00 +19°C° 0 mm 3 mps 748 mmHg 90%
    01:00 +19°C° 0 mm 3 mps 748 mmHg 92%
    02:00 +18°C° 0 mm 3 mps 748 mmHg 93%
    03:00 +18°C° 0 mm 3 mps 748 mmHg 94%
    04:00 +18°C° 0 mm 3 mps 748 mmHg 96%
    05:00 +18°C° 0 mm 3 mps 749 mmHg 93%
    06:00 +19°C° 0 mm 3 mps 749 mmHg 91%
    07:00 +20°C° 0 mm 3 mps 749 mmHg 88%
    08:00 +21°C° 0 mm 3 mps 749 mmHg 85%
    09:00 +22°C° 0 mm 3 mps 749 mmHg 82%
    10:00 +24°C° 0 mm 3 mps 749 mmHg 79%
    11:00 +25°C° 0.1 mm 3 mps 749 mmHg 74%
    12:00 +26°C° 0.1 mm 3 mps 749 mmHg 70%
    13:00 +28°C° 0.1 mm 3 mps 749 mmHg 66%
    14:00 +28°C° 0.6 mm 3 mps 749 mmHg 66%
    15:00 +28°C° 0.6 mm 4 mps 749 mmHg 65%
    16:00 +28°C° 0.6 mm 4 mps 748 mmHg 65%
    17:00 +27°C° 0.6 mm 4 mps 749 mmHg 70%
    18:00 +26°C° 0.6 mm 3 mps 749 mmHg 76%
    19:00 +25°C° 0.6 mm 3 mps 749 mmHg 81%
    20:00 +24°C° 0 mm 3 mps 749 mmHg 85%
    21:00 +22°C° 0 mm 3 mps 749 mmHg 89%
    22:00 +21°C° 0 mm 3 mps 749 mmHg 93%
    23:00 +21°C° 0 mm 3 mps 749 mmHg 94%
    Show more